This is the latest recevied weather packets stored in our database for station/object KB7K. If no packets are shown the sender has not sent any weather packets the latest 10 day(s).
| Time | Temp. | Humidity | Pressure | Rain* | Wind** | Luminosity | Snow |
|---|---|---|---|---|---|---|---|
| 1787798667 | 26.11° C | 27% | 984.1 hPa | 0 mm | - | - | - |
| 1787797741 | 26.11° C | 26% | 985.6 hPa | 0 mm | - | - | - |
| 1787796738 | 26.67° C | 26% | 986.1 hPa | 0 mm | - | - | - |
| 1787796098 | 27.22° C | 26% | 986.4 hPa | 0 mm | - | - | - |
| 1787795688 | 27.22° C | 26% | 986.2 hPa | 0 mm | - | - | - |
| 1787794815 | 27.78° C | 23% | 984.5 hPa | 0 mm | - | - | - |
| 1787793812 | 28.33° C | 23% | 983.7 hPa | 0 mm | - | - | - |
| 1787792809 | 28.33° C | 23% | 983.4 hPa | 0 mm | - | - | - |
| 1787791806 | 28.89° C | 23% | 983.3 hPa | 0 mm | - | - | - |
| 1787790803 | 29.44° C | 22% | 983.3 hPa | 0 mm | - | - | - |
| 1787789800 | 29.44° C | 22% | 983.1 hPa | 0 mm | - | - | - |
| 1787788796 | 29.44° C | 22% | 983.1 hPa | 0 mm | - | - | - |
| 1787787794 | 29.44° C | 22% | 983 hPa | 0 mm | - | - | - |
| 1787786790 | 29.44° C | 23% | 983.1 hPa | 0 mm | - | - | - |
| 1787784784 | 29.44° C | 24% | 983.2 hPa | 0 mm | - | - | - |
| 1787783781 | 29.44° C | 25% | 983.2 hPa | 0 mm | - | - | - |
| 1787782778 | 30° C | 21% | 983.5 hPa | 0 mm | - | - | - |
| 1787781775 | 31.11° C | 21% | 983.8 hPa | 0 mm | - | - | - |
| 1787781605 | 31.67° C | 21% | 983.8 hPa | 0 mm | - | - | - |
| 1787781319 | 32.22° C | 21% | 983.7 hPa | 0 mm | - | - | - |
| 1787781103 | 32.22° C | 20% | 983.7 hPa | 0 mm | - | - | - |
| 1787780765 | 33.33° C | 18% | 983.7 hPa | 0 mm | - | - | - |
| 1787780538 | 33.33° C | 18% | 983.5 hPa | 0 mm | - | - | - |
| 1787780178 | 34.44° C | 17% | 983.4 hPa | 0 mm | - | - | - |
| 1787780085 | 34.44° C | 17% | 983.3 hPa | 0 mm | - | - | - |
* Rain since midnight (hover to see other rain measurements)
** Current wind speed in m/s (hover to see current wind gust speed)